Volver al catálogo

STARLINK-36111

ActivoComunicacionesVLEO
NORAD 66950·PAYLOAD·🇺🇸 United States

Lanzado Dec 7, 2025 desde Vandenberg Space Force Base

Loading…

Próximos Pases (próximas 24 horas)

TLE

ActualizadoSource: CelesTrak SupGP

Época: Sep 14, 2026, 22:40 UTC

1 66950C 25286AB  26257.94493056 -.00010990  00000+0 -32455-3 0  2570
2 66950  53.1583 195.3440 0001271  85.8114 122.7467 15.34410042    11

Sigue STARLINK-36111 en tiempo real con AllMySat

Download on the App Store